| time (UTC) | temp C | wind direction | speed KPH | gust KPH | rain 1hr cm | rain 24hr cm | rain mn cm | humidity % | barometer mb |
| 20260506160012 | 27 | 195 | 8.0 | 12.9 | 0.00 | 0.00 | 0.00 | 79 | 1007.5 |
| 20260506155512 | 27 | 175 | 9.7 | 19.3 | 0.00 | 0.00 | 0.00 | 81 | 1007.4 |
| 20260506155012 | 27 | 164 | 8.0 | 14.5 | 0.00 | 0.00 | 0.00 | 79 | 1007.4 |
| 20260506154513 | 27 | 178 | 9.7 | 14.5 | 0.00 | 0.00 | 0.00 | 80 | 1007.4 |
| 20260506153512 | 27 | 179 | 11.3 | 20.9 | 0.00 | 0.00 | 0.00 | 78 | 1007.3 |
| 20260506153013 | 27 | 194 | 11.3 | 22.5 | 0.00 | 0.00 | 0.00 | 79 | 1007.3 |
| 20260506152512 | 27 | 200 | 16.1 | 25.7 | 0.00 | 0.00 | 0.00 | 79 | 1007.3 |
| 20260506151512 | 27 | 155 | 14.5 | 22.5 | 0.00 | 0.00 | 0.00 | 80 | 1007.2 |
| 20260506151012 | 27 | 168 | 11.3 | 19.3 | 0.00 | 0.00 | 0.00 | 80 | 1007.2 |
| 20260506150512 | 27 | 191 | 9.7 | 16.1 | 0.00 | 0.00 | 0.00 | 80 | 1007.2 |
| 20260506150012 | 27 | 168 | 9.7 | 20.9 | 0.00 | 0.00 | 0.00 | 83 | 1007.3 |
| 20260506145513 | 27 | 193 | 8.0 | 19.3 | 0.00 | 0.00 | 0.00 | 83 | 1007.2 |
| 20260506145013 | 27 | 165 | 8.0 | 19.3 | 0.00 | 0.00 | 0.00 | 83 | 1007.2 |
| 20260506144515 | 27 | 177 | 14.5 | 22.5 | 0.00 | 0.00 | 0.00 | 82 | 1007.2 |
| 20260506143013 | 27 | 164 | 9.7 | 14.5 | 0.00 | 0.00 | 0.00 | 85 | 1007.2 |
| 20260506142512 | 26 | 159 | 12.9 | 20.9 | 0.00 | 0.00 | 0.00 | 85 | 1007.2 |
| 20260506141511 | 26 | 165 | 11.3 | 19.3 | 0.00 | 0.00 | 0.00 | 85 | 1007.2 |
| 20260506141012 | 26 | 152 | 14.5 | 19.3 | 0.00 | 0.00 | 0.00 | 86 | 1007.2 |
| 20260506140512 | 26 | 172 | 11.3 | 20.9 | 0.00 | 0.00 | 0.00 | 87 | 1007.1 |
| 20260506140012 | 26 | 150 | 14.5 | 19.3 | 0.00 | 0.00 | 0.00 | 87 | 1007.2 |
| 20260506135512 | 26 | 156 | 12.9 | 19.3 | 0.00 | 0.00 | 0.00 | 87 | 1007.3 |
| 20260506135012 | 26 | 155 | 12.9 | 16.1 | 0.00 | 0.00 | 0.00 | 88 | 1007.2 |
| 20260506134512 | 26 | 149 | 12.9 | 19.3 | 0.00 | 0.00 | 0.00 | 88 | 1007.2 |
| 20260506134012 | 26 | 152 | 14.5 | 19.3 | 0.00 | 0.00 | 0.00 | 89 | 1007.1 |
| 20260506133513 | 25 | 148 | 14.5 | 16.1 | 0.00 | 0.00 | 0.00 | 88 | 1007.2 |
| 20260506133013 | 25 | 135 | 11.3 | 16.1 | 0.00 | 0.00 | 0.00 | 89 | 1007.2 |
| 20260506132512 | 25 | 139 | 11.3 | 16.1 | 0.00 | 0.00 | 0.00 | 89 | 1007.2 |
| 20260506132012 | 25 | 148 | 11.3 | 16.1 | 0.00 | 0.00 | 0.00 | 88 | 1007.2 |
| 20260506131512 | 25 | 139 | 11.3 | 19.3 | 0.00 | 0.00 | 0.00 | 89 | 1007.2 |
| 20260506131012 | 25 | 148 | 12.9 | 16.1 | 0.00 | 0.00 | 0.00 | 89 | 1007.2 |
| 20260506130512 | 25 | 139 | 11.3 | 16.1 | 0.00 | 0.00 | 0.00 | 89 | 1007.2 |
| 20260506130012 | 25 | 141 | 9.7 | 14.5 | 0.00 | 0.00 | 0.00 | 90 | 1007.1 |
| 20260506125513 | 25 | 139 | 11.3 | 14.5 | 0.00 | 0.00 | 0.00 | 89 | 1006.9 |
| 20260506125012 | 25 | 139 | 11.3 | 14.5 | 0.00 | 0.00 | 0.00 | 90 | 1006.9 |
| 20260506124512 | 25 | 147 | 9.7 | 14.5 | 0.00 | 0.00 | 0.00 | 90 | 1006.9 |
| 20260506124012 | 25 | 143 | 11.3 | 14.5 | 0.00 | 0.00 | 0.00 | 90 | 1006.9 |
| 20260506123512 | 25 | 147 | 11.3 | 14.5 | 0.00 | 0.00 | 0.00 | 90 | 1006.8 |
| 20260506123012 | 25 | 144 | 11.3 | 14.5 | 0.00 | 0.00 | 0.00 | 90 | 1006.8 |
| 20260506122012 | 25 | 142 | 11.3 | 16.1 | 0.00 | 0.00 | 0.00 | 90 | 1006.8 |
| 20260506121512 | 25 | 143 | 11.3 | 16.1 | 0.00 | 0.00 | 0.00 | 90 | 1006.8 |
| 20260506121012 | 25 | 143 | 12.9 | 16.1 | 0.00 | 0.00 | 0.00 | 90 | 1006.8 |
| 20260506120512 | 25 | 143 | 11.3 | 14.5 | 0.00 | 0.00 | 0.00 | 90 | 1006.7 |
| 20260506120014 | 25 | 146 | 11.3 | 16.1 | 0.00 | 0.00 | 0.00 | 90 | 1006.7 |
| 20260506115011 | 25 | 143 | 11.3 | 14.5 | 0.00 | 0.00 | 0.00 | 90 | 1006.6 |
| 20260506114512 | 25 | 144 | 11.3 | 16.1 | 0.00 | 0.00 | 0.00 | 90 | 1006.6 |
| 20260506114012 | 25 | 141 | 9.7 | 12.9 | 0.00 | 0.00 | 0.00 | 90 | 1006.6 |
| 20260506113512 | 25 | 138 | 9.7 | 12.9 | 0.00 | 0.00 | 0.00 | 90 | 1006.6 |
| 20260506113013 | 25 | 150 | 8.0 | 12.9 | 0.00 | 0.00 | 0.00 | 90 | 1006.7 |
| 20260506112512 | 25 | 150 | 8.0 | 12.9 | 0.00 | 0.00 | 0.00 | 90 | 1006.7 |
| 20260506112012 | 25 | 147 | 9.7 | 14.5 | 0.00 | 0.00 | 0.00 | 90 | 1006.6 |
| 20260506111512 | 25 | 146 | 9.7 | 16.1 | 0.00 | 0.00 | 0.00 | 90 | 1006.5 |
| 20260506111013 | 25 | 148 | 11.3 | 14.5 | 0.00 | 0.00 | 0.00 | 90 | 1006.5 |
| 20260506110513 | 25 | 139 | 11.3 | 16.1 | 0.00 | 0.00 | 0.00 | 90 | 1006.5 |
| 20260506110013 | 25 | 142 | 9.7 | 12.9 | 0.00 | 0.00 | 0.00 | 90 | 1006.6 |
| 20260506105513 | 25 | 139 | 9.7 | 11.3 | 0.00 | 0.00 | 0.00 | 90 | 1006.7 |
| 20260506105012 | 25 | 140 | 9.7 | 12.9 | 0.00 | 0.00 | 0.00 | 90 | 1006.6 |
| 20260506104512 | 25 | 137 | 9.7 | 12.9 | 0.00 | 0.00 | 0.00 | 90 | 1006.6 |
| 20260506103513 | 25 | 132 | 8.0 | 12.9 | 0.00 | 0.00 | 0.00 | 90 | 1006.6 |
| 20260506103013 | 25 | 140 | 9.7 | 12.9 | 0.00 | 0.00 | 0.00 | 90 | 1006.7 |
| 20260506102511 | 25 | 137 | 11.3 | 14.5 | 0.00 | 0.00 | 0.00 | 90 | 1006.7 |
| 20260506102012 | 25 | 133 | 11.3 | 14.5 | 0.00 | 0.00 | 0.00 | 90 | 1006.7 |
| 20260506101013 | 25 | 146 | 8.0 | 11.3 | 0.00 | 0.00 | 0.00 | 90 | 1006.6 |
| 20260506100512 | 25 | 150 | 8.0 | 11.3 | 0.00 | 0.00 | 0.00 | 90 | 1006.5 |
| 20260506100012 | 25 | 143 | 8.0 | 9.7 | 0.00 | 0.00 | 0.00 | 90 | 1006.5 |
| 20260506095013 | 25 | 149 | 4.8 | 8.0 | 0.00 | 0.00 | 0.00 | 90 | 1006.5 |
| 20260506094512 | 25 | 137 | 4.8 | 8.0 | 0.00 | 0.00 | 0.00 | 89 | 1006.7 |
| 20260506094017 | 25 | 132 | 4.8 | 9.7 | 0.00 | 0.00 | 0.00 | 89 | 1006.6 |
| 20260506093513 | 25 | 137 | 4.8 | 8.0 | 0.00 | 0.00 | 0.00 | 88 | 1006.6 |
| 20260506093015 | 25 | 158 | 8.0 | 11.3 | 0.00 | 0.00 | 0.00 | 88 | 1006.5 |
| 20260506092512 | 25 | 168 | 8.0 | 14.5 | 0.00 | 0.00 | 0.00 | 88 | 1006.5 |
| 20260506092012 | 25 | 161 | 8.0 | 14.5 | 0.00 | 0.00 | 0.00 | 87 | 1006.6 |
| 20260506091512 | 25 | 156 | 9.7 | 14.5 | 0.00 | 0.00 | 0.00 | 87 | 1006.6 |
| 20260506091012 | 25 | 144 | 11.3 | 22.5 | 0.00 | 0.00 | 0.00 | 86 | 1006.6 |
| 20260506090512 | 25 | 151 | 14.5 | 19.3 | 0.00 | 0.00 | 0.00 | 85 | 1006.5 |
| 20260506090012 | 25 | 156 | 12.9 | 19.3 | 0.00 | 0.00 | 0.00 | 85 | 1006.4 |
| 20260506085513 | 25 | 156 | 12.9 | 19.3 | 0.00 | 0.00 | 0.00 | 85 | 1006.3 |
| 20260506085011 | 25 | 151 | 14.5 | 20.9 | 0.00 | 0.00 | 0.00 | 86 | 1006.3 |
| 20260506084512 | 25 | 159 | 11.3 | 19.3 | 0.00 | 0.00 | 0.00 | 85 | 1006.3 |
| 20260506083512 | 26 | 161 | 11.3 | 19.3 | 0.00 | 0.00 | 0.00 | 85 | 1006.4 |
| 20260506083012 | 26 | 152 | 11.3 | 16.1 | 0.00 | 0.00 | 0.00 | 85 | 1006.4 |
| 20260506082012 | 25 | 163 | 14.5 | 22.5 | 0.00 | 0.00 | 0.00 | 85 | 1006.4 |
| 20260506081511 | 25 | 158 | 11.3 | 20.9 | 0.00 | 0.00 | 0.00 | 85 | 1006.3 |
| 20260506073012 | 25 | 149 | 11.3 | 22.5 | 0.00 | 0.00 | 0.00 | 85 | 1006.5 |
| 20260506072511 | 26 | 156 | 12.9 | 20.9 | 0.00 | 0.00 | 0.00 | 85 | 1006.5 |
| 20260506072012 | 25 | 161 | 11.3 | 20.9 | 0.00 | 0.00 | 0.00 | 86 | 1006.5 |
| 20260506071512 | 25 | 155 | 16.1 | 22.5 | 0.00 | 0.00 | 0.00 | 87 | 1006.5 |
| 20260506071012 | 25 | 168 | 14.5 | 19.3 | 0.00 | 0.00 | 0.00 | 87 | 1006.5 |
| 20260506062511 | 25 | 158 | 12.9 | 20.9 | 0.00 | 0.00 | 0.00 | 87 | 1006.8 |
| 20260506062012 | 25 | 161 | 14.5 | 20.9 | 0.00 | 0.00 | 0.00 | 88 | 1006.9 |
| 20260506061512 | 25 | 161 | 14.5 | 22.5 | 0.00 | 0.00 | 0.00 | 88 | 1006.9 |
| 20260506061012 | 25 | 158 | 16.1 | 22.5 | 0.00 | 0.00 | 0.00 | 88 | 1006.9 |
| 20260506060512 | 25 | 154 | 16.1 | 22.5 | 0.00 | 0.00 | 0.00 | 87 | 1006.9 |
| 20260506045013 | 25 | 171 | 12.9 | 27.4 | 0.00 | 0.00 | 0.00 | 87 | 1007.2 |
| 20260506044511 | 25 | 167 | 12.9 | 20.9 | 0.00 | 0.00 | 0.00 | 87 | 1007.2 |
| 20260506044012 | 25 | 169 | 12.9 | 20.9 | 0.00 | 0.00 | 0.00 | 87 | 1007.2 |
| 20260506043512 | 25 | 171 | 11.3 | 20.9 | 0.00 | 0.00 | 0.00 | 87 | 1007.2 |
| 20260506042511 | 25 | 168 | 14.5 | 27.4 | 0.00 | 0.00 | 0.00 | 87 | 1007.0 |
| 20260506042012 | 25 | 165 | 14.5 | 29.0 | 0.00 | 0.00 | 0.00 | 87 | 1007.0 |
| 20260506041511 | 25 | 171 | 14.5 | 22.5 | 0.00 | 0.00 | 0.00 | 87 | 1007.0 |
| 20260506041012 | 25 | 163 | 16.1 | 25.7 | 0.00 | 0.00 | 0.00 | 87 | 1006.9 |
| 20260506040011 | 25 | 176 | 14.5 | 25.7 | 0.00 | 0.00 | 0.00 | 87 | 1006.6 |
| 20260506035511 | 25 | 165 | 16.1 | 25.7 | 0.00 | 0.00 | 0.00 | 87 | 1006.4 |
| 20260506034512 | 25 | 178 | 11.3 | 27.4 | 0.00 | 0.00 | 0.00 | 87 | 1006.5 |
| 20260506034012 | 25 | 155 | 11.3 | 29.0 | 0.00 | 0.00 | 0.00 | 87 | 1006.4 |
| 20260506032511 | 25 | 173 | 12.9 | 20.9 | 0.00 | 0.00 | 0.00 | 86 | 1006.1 |
| 20260506032014 | 25 | 162 | 14.5 | 20.9 | 0.00 | 0.00 | 0.00 | 87 | 1006.2 |
| 20260506031511 | 25 | 161 | 14.5 | 22.5 | 0.00 | 0.00 | 0.00 | 86 | 1006.2 |
| 20260506031013 | 25 | 159 | 14.5 | 22.5 | 0.00 | 0.00 | 0.00 | 86 | 1006.0 |
| 20260506030511 | 25 | 168 | 12.9 | 22.5 | 0.00 | 0.00 | 0.00 | 86 | 1006.0 |
| 20260506030012 | 25 | 154 | 17.7 | 22.5 | 0.00 | 0.00 | 0.00 | 86 | 1005.9 |
| 20260506025512 | 25 | 167 | 14.5 | 22.5 | 0.00 | 0.00 | 0.00 | 86 | 1006.0 |
| 20260506024511 | 26 | 161 | 20.9 | 27.4 | 0.00 | 0.00 | 0.00 | 85 | 1005.6 |
| 20260506023512 | 26 | 155 | 16.1 | 25.7 | 0.00 | 0.00 | 0.00 | 85 | 1005.7 |
| 20260506023012 | 26 | 157 | 16.1 | 27.4 | 0.00 | 0.00 | 0.00 | 84 | 1005.6 |
| 20260506021518 | 26 | 159 | 19.3 | 32.2 | 0.00 | 0.00 | 0.00 | 84 | 1005.5 |
| 20260506021012 | 26 | 156 | 20.9 | 33.8 | 0.00 | 0.00 | 0.00 | 83 | 1005.4 |
| 20260506020512 | 26 | 157 | 20.9 | 29.0 | 0.00 | 0.00 | 0.00 | 83 | 1005.4 |
| 20260506020011 | 26 | 151 | 20.9 | 33.8 | 0.00 | 0.00 | 0.00 | 82 | 1005.3 |
| 20260506015011 | 26 | 150 | 17.7 | 24.1 | 0.00 | 0.00 | 0.00 | 82 | 1005.3 |
| 20260506014012 | 26 | 159 | 17.7 | 29.0 | 0.00 | 0.00 | 0.00 | 81 | 1005.2 |
| 20260506013512 | 26 | 156 | 14.5 | 24.1 | 0.00 | 0.00 | 0.00 | 81 | 1005.2 |
| 20260506012511 | 26 | 154 | 19.3 | 32.2 | 0.00 | 0.00 | 0.00 | 81 | 1005.1 |
| 20260506012012 | 27 | 155 | 17.7 | 29.0 | 0.00 | 0.00 | 0.00 | 80 | 1005.1 |
| 20260506011512 | 27 | 165 | 20.9 | 29.0 | 0.00 | 0.00 | 0.00 | 80 | 1004.9 |
| 20260506011012 | 27 | 158 | 17.7 | 29.0 | 0.00 | 0.00 | 0.00 | 80 | 1004.9 |
| 20260506010512 | 27 | 150 | 17.7 | 27.4 | 0.00 | 0.00 | 0.00 | 79 | 1004.9 |
| 20260506010011 | 27 | 145 | 20.9 | 27.4 | 0.00 | 0.00 | 0.00 | 78 | 1004.9 |
| 20260506005512 | 27 | 151 | 17.7 | 25.7 | 0.00 | 0.00 | 0.00 | 78 | 1004.7 |
| 20260506005011 | 27 | 154 | 20.9 | 27.4 | 0.00 | 0.00 | 0.00 | 78 | 1004.6 |
| 20260506004511 | 27 | 154 | 20.9 | 27.4 | 0.00 | 0.00 | 0.00 | 77 | 1004.6 |
| 20260506004011 | 27 | 165 | 16.1 | 27.4 | 0.00 | 0.00 | 0.00 | 76 | 1004.6 |
| 20260506003511 | 27 | 156 | 24.1 | 33.8 | 0.00 | 0.00 | 0.00 | 76 | 1004.6 |
| 20260506002511 | 27 | 154 | 22.5 | 32.2 | 0.00 | 0.00 | 0.00 | 75 | 1004.5 |
| 20260506002012 | 28 | 157 | 19.3 | 32.2 | 0.00 | 0.00 | 0.00 | 74 | 1004.5 |
| 20260506001512 | 28 | 157 | 20.9 | 32.2 | 0.00 | 0.00 | 0.00 | 74 | 1004.5 |
| 20260506001012 | 28 | 158 | 20.9 | 27.4 | 0.00 | 0.00 | 0.00 | 73 | 1004.4 |
| 20260506000011 | 28 | 147 | 24.1 | 35.4 | 0.00 | 0.00 | 0.00 | 71 | 1004.3 |
| 20260505235511 | 28 | 151 | 24.1 | 35.4 | 0.00 | 0.00 | 0.00 | 71 | 1004.2 |
| 20260505235012 | 29 | 157 | 19.3 | 32.2 | 0.00 | 0.00 | 0.00 | 70 | 1004.3 |
| 20260505234511 | 29 | 158 | 20.9 | 35.4 | 0.00 | 0.00 | 0.00 | 70 | 1004.1 |
| 20260505234011 | 29 | 151 | 20.9 | 32.2 | 0.00 | 0.00 | 0.00 | 70 | 1004.0 |
| 20260505233511 | 28 | 138 | 25.7 | 35.4 | 0.00 | 0.00 | 0.00 | 70 | 1004.0 |
| 20260505233012 | 28 | 145 | 24.1 | 33.8 | 0.00 | 0.00 | 0.00 | 71 | 1004.1 |
| 20260505232511 | 28 | 142 | 20.9 | 35.4 | 0.00 | 0.00 | 0.00 | 72 | 1004.0 |
| 20260505232012 | 28 | 126 | 22.5 | 29.0 | 0.00 | 0.00 | 0.00 | 72 | 1004.0 |
| 20260505231012 | 28 | 129 | 20.9 | 29.0 | 0.00 | 0.00 | 0.00 | 72 | 1004.0 |
| 20260505230011 | 28 | 122 | 22.5 | 33.8 | 0.00 | 0.00 | 0.00 | 71 | 1004.0 |
| 20260505225511 | 28 | 118 | 24.1 | 35.4 | 0.00 | 0.00 | 0.00 | 71 | 1004.1 |
| 20260505225011 | 29 | 121 | 22.5 | 33.8 | 0.00 | 0.00 | 0.00 | 71 | 1004.1 |
| 20260505224511 | 29 | 129 | 20.9 | 33.8 | 0.00 | 0.00 | 0.00 | 70 | 1004.0 |
| 20260505224011 | 29 | 121 | 20.9 | 33.8 | 0.00 | 0.00 | 0.00 | 70 | 1003.9 |
| 20260505223511 | 29 | 110 | 22.5 | 37.0 | 0.00 | 0.00 | 0.00 | 70 | 1004.0 |
| 20260505222512 | 30 | 138 | 22.5 | 32.2 | 0.00 | 0.00 | 0.00 | 66 | 1004.0 |
| 20260505222012 | 31 | 130 | 14.5 | 24.1 | 0.00 | 0.00 | 0.00 | 65 | 1004.0 |
| 20260505221511 | 30 | 135 | 19.3 | 27.4 | 0.00 | 0.00 | 0.00 | 65 | 1004.0 |
| 20260505221011 | 30 | 145 | 20.9 | 29.0 | 0.00 | 0.00 | 0.00 | 65 | 1004.0 |
| 20260505220011 | 30 | 134 | 22.5 | 32.2 | 0.00 | 0.00 | 0.00 | 65 | 1004.1 |
| 20260505214511 | 31 | 178 | 14.5 | 25.7 | 0.00 | 0.00 | 0.00 | 65 | 1004.3 |
| 20260505214011 | 31 | 143 | 20.9 | 33.8 | 0.00 | 0.00 | 0.00 | 64 | 1004.3 |
| 20260505213011 | 31 | 151 | 19.3 | 25.7 | 0.00 | 0.00 | 0.00 | 64 | 1004.3 |
| 20260505212511 | 31 | 141 | 20.9 | 29.0 | 0.00 | 0.00 | 0.00 | 61 | 1004.4 |
| 20260505212012 | 32 | 154 | 16.1 | 25.7 | 0.00 | 0.00 | 0.00 | 59 | 1004.5 |
| 20260505211012 | 32 | 170 | 11.3 | 22.5 | 0.00 | 0.00 | 0.00 | 60 | 1004.7 |
| 20260505210512 | 32 | 143 | 14.5 | 22.5 | 0.00 | 0.00 | 0.00 | 58 | 1004.8 |
| 20260505210011 | 31 | 147 | 14.5 | 19.3 | 0.00 | 0.00 | 0.00 | 59 | 1004.8 |
| 20260505205512 | 31 | 175 | 9.7 | 22.5 | 0.00 | 0.00 | 0.00 | 60 | 1004.9 |
| 20260505205011 | 31 | 151 | 14.5 | 22.5 | 0.00 | 0.00 | 0.00 | 60 | 1005.0 |
| 20260505204511 | 31 | 143 | 16.1 | 22.5 | 0.00 | 0.00 | 0.00 | 59 | 1005.0 |
| 20260505204012 | 31 | 132 | 14.5 | 20.9 | 0.00 | 0.00 | 0.00 | 58 | 1005.1 |
| 20260505203511 | 31 | 173 | 8.0 | 20.9 | 0.00 | 0.00 | 0.00 | 57 | 1005.2 |
| 20260505203011 | 31 | 149 | 11.3 | 20.9 | 0.00 | 0.00 | 0.00 | 59 | 1005.2 |
| 20260505202511 | 31 | 179 | 11.3 | 20.9 | 0.00 | 0.00 | 0.00 | 58 | 1005.3 |
| 20260505202012 | 31 | 153 | 12.9 | 24.1 | 0.00 | 0.00 | 0.00 | 57 | 1005.3 |
| 20260505201512 | 31 | 150 | 12.9 | 33.8 | 0.00 | 0.00 | 0.00 | 59 | 1005.4 |
| 20260505201012 | 32 | 156 | 11.3 | 29.0 | 0.00 | 0.00 | 0.00 | 55 | 1005.5 |
| 20260505200512 | 32 | 172 | 16.1 | 24.1 | 0.00 | 0.00 | 0.00 | 54 | 1005.4 |
| 20260505200011 | 32 | 195 | 11.3 | 19.3 | 0.00 | 0.00 | 0.00 | 57 | 1005.5 |
| 20260505195511 | 32 | 169 | 9.7 | 20.9 | 0.00 | 0.00 | 0.00 | 56 | 1005.6 |
| 20260505195011 | 31 | 183 | 11.3 | 24.1 | 0.00 | 0.00 | 0.00 | 57 | 1005.7 |
| 20260505194511 | 31 | 165 | 9.7 | 19.3 | 0.00 | 0.00 | 0.00 | 57 | 1005.7 |
| 20260505194012 | 31 | 151 | 16.1 | 25.7 | 0.00 | 0.00 | 0.00 | 56 | 1005.7 |
| 20260505193511 | 31 | 202 | 9.7 | 24.1 | 0.00 | 0.00 | 0.00 | 56 | 1005.9 |
| 20260505193011 | 32 | 178 | 8.0 | 22.5 | 0.00 | 0.00 | 0.00 | 57 | 1006.0 |
| 20260505192512 | 32 | 171 | 9.7 | 22.5 | 0.00 | 0.00 | 0.00 | 57 | 1006.1 |
| 20260505192012 | 32 | 181 | 11.3 | 24.1 | 0.00 | 0.00 | 0.00 | 56 | 1006.1 |
| 20260505191512 | 32 | 172 | 14.5 | 24.1 | 0.00 | 0.00 | 0.00 | 56 | 1006.1 |
| 20260505191011 | 31 | 174 | 9.7 | 24.1 | 0.00 | 0.00 | 0.00 | 58 | 1006.2 |
| 20260505190511 | 31 | 194 | 14.5 | 22.5 | 0.00 | 0.00 | 0.00 | 57 | 1006.2 |
| 20260505190011 | 31 | 179 | 11.3 | 16.1 | 0.00 | 0.00 | 0.00 | 60 | 1006.2 |
| 20260505185011 | 31 | 170 | 14.5 | 22.5 | 0.00 | 0.00 | 0.00 | 61 | 1006.3 |
| 20260505184511 | 30 | 161 | 14.5 | 22.5 | 0.00 | 0.00 | 0.00 | 62 | 1006.3 |
| 20260505184011 | 31 | 170 | 11.3 | 20.9 | 0.00 | 0.00 | 0.00 | 60 | 1006.3 |
| 20260505183011 | 31 | 212 | 12.9 | 20.9 | 0.00 | 0.00 | 0.00 | 60 | 1006.4 |
| 20260505182012 | 30 | 186 | 11.3 | 20.9 | 0.00 | 0.00 | 0.00 | 61 | 1006.5 |
| 20260505181511 | 30 | 203 | 14.5 | 22.5 | 0.00 | 0.00 | 0.00 | 62 | 1006.5 |
| 20260505180511 | 30 | 169 | 12.9 | 22.5 | 0.00 | 0.00 | 0.00 | 63 | 1006.5 |
| 20260505180010 | 30 | 212 | 16.1 | 25.7 | 0.00 | 0.00 | 0.00 | 61 | 1006.6 |
| 20260505175511 | 30 | 166 | 11.3 | 19.3 | 0.00 | 0.00 | 0.00 | 65 | 1006.7 |
| 20260505175011 | 29 | 215 | 14.5 | 27.4 | 0.00 | 0.00 | 0.00 | 64 | 1006.8 |
| 20260505174012 | 29 | 203 | 8.0 | 12.9 | 0.00 | 0.00 | 0.00 | 68 | 1007.0 |
| 20260505173511 | 28 | 215 | 9.7 | 24.1 | 0.00 | 0.00 | 0.00 | 69 | 1007.1 |
| 20260505173011 | 28 | 221 | 12.9 | 20.9 | 0.00 | 0.00 | 0.00 | 68 | 1007.2 |
| 20260505172511 | 28 | 160 | 11.3 | 22.5 | 0.00 | 0.00 | 0.00 | 70 | 1007.1 |
| 20260505172012 | 28 | 226 | 14.5 | 20.9 | 0.00 | 0.00 | 0.00 | 70 | 1007.3 |
| 20260505171511 | 28 | 204 | 11.3 | 19.3 | 0.00 | 0.00 | 0.00 | 70 | 1007.3 |
| 20260505171011 | 28 | 211 | 11.3 | 16.1 | 0.00 | 0.00 | 0.00 | 72 | 1007.4 |
| 20260505170511 | 28 | 197 | 11.3 | 16.1 | 0.00 | 0.00 | 0.00 | 71 | 1007.5 |
| 20260505165512 | 28 | 207 | 11.3 | 19.3 | 0.00 | 0.00 | 0.00 | 71 | 1007.5 |
| 20260505165011 | 27 | 215 | 11.3 | 19.3 | 0.00 | 0.00 | 0.00 | 73 | 1007.6 |
| 20260505164511 | 27 | 205 | 12.9 | 19.3 | 0.00 | 0.00 | 0.00 | 73 | 1007.7 |
| 20260505164011 | 27 | 209 | 14.5 | 20.9 | 0.00 | 0.00 | 0.00 | 74 | 1007.7 |
| 20260505163511 | 27 | 228 | 12.9 | 20.9 | 0.00 | 0.00 | 0.00 | 74 | 1007.8 |
| 20260505163011 | 27 | 217 | 11.3 | 19.3 | 0.00 | 0.00 | 0.00 | 74 | 1007.9 |
| 20260505162511 | 27 | 202 | 11.3 | 20.9 | 0.00 | 0.00 | 0.00 | 75 | 1007.9 |
| 20260505162011 | 27 | 211 | 14.5 | 20.9 | 0.00 | 0.00 | 0.00 | 75 | 1007.9 |
| 20260505161511 | 27 | 190 | 12.9 | 20.9 | 0.00 | 0.00 | 0.00 | 76 | 1007.9 |
| 20260505161012 | 27 | 219 | 14.5 | 20.9 | 0.00 | 0.00 | 0.00 | 76 | 1007.9 |
| 20260505160511 | 27 | 209 | 12.9 | 22.5 | 0.00 | 0.00 | 0.00 | 75 | 1007.9 |